Flag for Germany Weather past 2 weeks in Fürstenwalde/Spree, Brandenburg, Germany

Now
66 °F

Clear.


Feels Like: 66 °F
Forecast: 62 / 77 °F
Wind: 1 mph from East

Location: Lindenberg

Current Time: Jul 30, 2014 at 5:17:33 AM

Latest Report: Jul 30, 2014 at 4:00 AM


Visibility: 6 mi

Pressure: 29.70 "Hg

Humidity: 97%

Dew point: 65 °F

Location of Fürstenwalde/SpreeLocation

Historic Weather in Fürstenwalde/Spree — Graph

°F

Fürstenwalde/Spree temperature yesterday

Maximum temperature yesterday: 83 °F (at 2:00 PM)
Minimum temperature yesterday: 67 °F (at 4:00 AM)
Average temperature yesterday: 72 °F

Past Weeks' High & Low Weather Summary

 TemperatureHumidityPressure
High93 °F (Jul 20, 4:00 PM)100% (Jul 26, 6:00 AM)30.16 "Hg (Jul 26, 6:00 AM)
Low59 °F (Jul 24, 6:00 AM)25% (Jul 20, 5:00 PM)29.70 "Hg (Jul 30, 3:00 AM)
Average73 °F67%29.96 "Hg
* Reported Jul 15 4:00 AM — Jul 30 4:00 AM, Fürstenwalde/Spree, Weather by CustomWeather, © 2014

Note: Actual official high and low records may vary slightly from our data, if they occured in-between our weather recording intervals... More about our weather records

Advertising

Fürstenwalde/Spree weather history for previous 24 hours

 ConditionsComfort  
Time TempWeatherWind HumidityBarometerVisibility
4:00 AM
Jul 30
66 °FClear.1 mph97%29.70 "Hg6 mi
3:00 AM66 °FClear.1 mph96%29.70 "Hg6 mi
2:00 AM67 °FClear.2 mph97%29.71 "Hg6 mi
1:00 AM68 °FPassing clouds.2 mph96%29.70 "Hg9 mi
12:00 AM67 °FPassing clouds.1 mph96%29.70 "Hg9 mi
11:00 PM
Jul 29
67 °FPassing clouds.2 mph96%29.72 "Hg9 mi
10:00 PM68 °FOvercast.3 mph92%29.70 "Hg5 mi
9:00 PM70 °FFog.3 mph96%29.71 "Hg2 mi
8:00 PM71 °FThunderstorms. Overcast.2 mph94%29.71 "Hg2 mi
7:00 PM71 °FThundershowers. Overcast.3 mph89%29.72 "Hg5 mi
6:00 PM70 °FThundershowers. Overcast.3 mph91%29.70 "Hg5 mi
4:00 PM75 °FRain. Overcast.1 mph82%29.71 "Hg6 mi
3:00 PM82 °FThunderstorms. Overcast.1 mph56%29.71 "Hg12 mi
2:00 PM83 °FOvercast.2 mph53%29.73 "Hg12 mi
1:00 PM82 °FPartly sunny.2 mph55%29.75 "Hg11 mi
12:00 PM81 °FPartly sunny.2 mph59%29.75 "Hg9 mi
11:00 AM78 °FScattered clouds.1 mph66%29.76 "Hg7 mi
10:00 AM77 °FScattered clouds.2 mph69%29.76 "Hg7 mi
9:00 AM73 °FScattered clouds.1 mph73%29.78 "Hg6 mi
8:00 AM70 °FFog.1 mph83%29.78 "Hg4 mi
7:00 AM68 °FFog.2 mph89%29.78 "Hg3 mi
6:00 AM67 °FOvercast.2 mph93%29.78 "Hg5 mi
5:00 AM67 °FOvercast.1 mph90%29.79 "Hg5 mi
Weather by CustomWeather, © 2014

See weather overviewHow to use our weather pages